Home > Weather > Nannestad > Past weeks

Flag for Norway Past Weather in Nannestad, Norway — Yesterday and Last 2 Weeks

Now
63 °F

Scattered showers. Clear.


Feels Like: 63 °F
Forecast: 59 / 67 °F
Wind: 5 mph from Southwest

Location: Oslo Gardermoen Airport

Current Time: Jul 26, 2016 at 12:18:18 AM

Latest Report: Jul 25, 2016 at 11:50 PM


Visibility: N/A

Pressure: 29.95 "Hg

Humidity: 83%

Dew Point: 57 °F

Location of NannestadLocation

Past Weather in Nannestad — Graph

°F

Nannestad Temperature Yesterday

Maximum temperature yesterday: 77 °F (at 1:20 PM)
Minimum temperature yesterday: 57 °F (at 4:20 AM)
Average temperature yesterday: 67 °F

High & Low Weather Summary for the Past Weeks

 TemperatureHumidityPressure
High79 °F (Jul 21, 4:50 PM)100% (Jul 13, 1:20 AM)30.12 "Hg (Jul 13, 1:20 AM)
Low46 °F (Jul 19, 4:20 AM)35% (Jul 16, 5:50 PM)29.42 "Hg (Jul 11, 12:20 PM)
Average63 °F69%29.88 "Hg
* Reported Jul 10 10:20 PM — Jul 25 10:50 PM, Nannestad, Weather by CustomWeather, © 2016

Note: Actual official high and low records may vary slightly from our data, if they occured in-between our weather recording intervals... More about our weather records

Advertising

Nannestad Weather History for the Previous 24 Hours

Scroll right to see more
 ConditionsComfort  
Time TempWeatherWind HumidityBarometerVisibility
10:50 PM
Mon, Jul 25
63 °FScattered showers. Partly sunny.5 mph83%29.95 "HgN/A
10:20 PM63 °FScattered showers. Partly sunny.6 mph83%29.98 "HgN/A
9:50 PM63 °FScattered showers. Clear.7 mph83%29.95 "HgN/A
9:20 PM64 °FSprinkles. Clear.5 mph78%29.95 "HgN/A
8:50 PM64 °FSprinkles. Broken clouds.7 mph78%29.98 "HgN/A
8:20 PM64 °FSprinkles. Broken clouds.8 mph73%29.98 "HgN/A
7:50 PM66 °FScattered showers. Clear.7 mph68%29.98 "HgN/A
7:20 PM66 °FScattered showers. Clear.5 mph64%29.98 "HgN/A
6:50 PM66 °FScattered showers. Clear.6 mph64%29.98 "HgN/A
6:20 PM68 °FScattered showers. Clear.8 mph60%29.98 "HgN/A
5:50 PM68 °FThundershowers. Broken clouds.10 mph64%30.01 "HgN/A
5:20 PM72 °FThundershowers. Partly sunny.13 mph61%29.98 "HgN/A
4:50 PM72 °FScattered showers. Partly sunny.15 mph53%29.98 "HgN/A
4:20 PM75 °FThundershowers. Partly sunny.15 mph50%29.98 "HgN/A
3:50 PM75 °FThundershowers. Clear.13 mph47%29.98 "HgN/A
3:20 PM77 °FSunny.17 mph44%29.98 "Hg10 mi
2:50 PM77 °FPassing clouds.14 mph44%29.98 "HgN/A
2:20 PM77 °FPassing clouds.12 mph44%29.98 "HgN/A
1:50 PM77 °FPassing clouds.14 mph44%30.01 "HgN/A
1:20 PM77 °FPassing clouds.12 mph47%30.01 "HgN/A
12:50 PM75 °FPassing clouds.12 mph47%30.01 "HgN/A
12:20 PM73 °FBroken clouds.9 mph50%30.01 "HgN/A
11:50 AM73 °FPassing clouds.9 mph50%30.04 "HgN/A
11:20 AM73 °FPassing clouds.8 mph53%30.04 "HgN/A
10:50 AM72 °FPassing clouds.8 mph57%30.04 "HgN/A
10:20 AM72 °FPassing clouds.6 mph57%30.04 "HgN/A
9:50 AM70 °FPassing clouds.5 mph60%30.04 "HgN/A
9:20 AM68 °FPassing clouds.5 mph64%30.04 "HgN/A
8:50 AM68 °FSunny.2 mph69%30.04 "Hg10 mi
8:20 AM64 °FSunny.1 mph78%30.07 "Hg10 mi
7:50 AM63 °FSunny.1 mph77%30.07 "Hg10 mi
7:20 AM61 °FSunny.No wind83%30.07 "Hg10 mi
6:50 AM59 °FSunny.No wind88%30.07 "Hg10 mi
6:20 AM57 °FSunny.No wind88%30.07 "Hg10 mi
5:50 AM57 °FSunny.No wind88%30.07 "Hg10 mi
5:20 AM59 °FClear.No wind82%30.07 "Hg10 mi
4:50 AM59 °FClear.No wind88%30.07 "Hg10 mi
4:20 AM57 °FClear.1 mph82%30.07 "Hg10 mi
3:50 AM59 °FClear.1 mph77%30.07 "Hg10 mi
3:20 AM61 °FClear.No wind77%30.07 "Hg10 mi
2:50 AM61 °FClear.1 mph77%30.07 "Hg10 mi
2:20 AM61 °FClear.2 mph77%30.07 "Hg10 mi
1:50 AM63 °FClear.1 mph73%30.07 "Hg10 mi
1:20 AM63 °FPassing clouds.5 mph73%30.07 "HgN/A
12:50 AM63 °FClear.6 mph73%30.07 "Hg10 mi
12:20 AM63 °FClear.No wind73%30.07 "Hg10 mi
Weather by CustomWeather, © 2016

See weather overviewHow to use our weather pages